Weather in Sredniy Shurguyal

Russia / Mari El Republic     56°50′17″N   49°06′08″E
temp.,
°C
wind,
m/s
gust,
m/s
humid.,
%
clouds,
%
prec.,
mm/h
press.,
hPa
HPBL,
m
3 march, wed
wed300:00−5w499584 0.0 998209
03:00−5wsw499786 0.1 999228
06:00−4wnw51096100 0.4 999495
09:00−5nw61094100 0.9 1000622
12:00−5nw71191100 0.4 1001665
15:00−5nw71089100 0.4 1002781
18:00−6wnw61091100 0.2 1003734
21:00−7wnw61091100 0.3 1004733
4 march, thu
thu400:00−8sw499599 0.1 1001223
03:00−6sw5129599 0.8 999467
06:00−5wsw51194100 0.4 997504
09:00−4sw61194100 0.8 995675
12:00−1wsw71193100 0.8 992991
15:00−2wnw71381100 2.2 9911263
18:00−4w7149061 0.1 993744
21:00−6wnw6129475 0.2 996419
5 march, fri
fri500:00−8wnw4897100 0.1 998204
03:00−12nw339795 0.1 100050
06:00−14nw239886 0.0 100122
09:00−13nnw359577 0.1 1002176
12:00−11nnw358895 0.0 1003348
15:00−11nw478973 0.0 1005479
18:00−15nw349681 0.0 100783
21:00−16wnw349786 0.0 101070
6 march, sat
sat600:00−17wnw349721 0.0 101142
03:00−17wsw349936 0.0 101272
06:00−17wsw3610096 0.0 101199
09:00−13wsw479694 0.1 1011241
12:00−10wsw4792100 0.1 1011504
15:00−9wnw4690100 0.3 1010656
18:00−15nw349694 0.1 101066
21:00−19wnw339548 0.1 101133
7 march, sun
sun700:00−19wsw34990 0.0 101151
03:00−18wsw369940 0.1 1011123
06:00−19sw389998 0.1 1010144
09:00−14sw499699 0.1 1009277
12:00−10ssw61185100 0.0 1007666
15:00−10s71291100 0.1 1004716
18:00−10s81492100 0.3 1001877
21:00−8s81593100 1.3 9971053